TimeMDT,TemperatureF,Dew PointF,Humidity,Sea Level PressureIn,VisibilityMPH,Wind Direction,Wind SpeedMPH,Gust SpeedMPH,PrecipitationIn,Events,Conditions,WindDirDegrees,DateUTC
12:15 AM,53.4,21.4,29,29.85,10.0,WSW,4.6,-,N/A,,Clear,240,2013-05-29 06:15:00
12:35 AM,52.9,20.8,29,29.85,10.0,West,6.9,-,N/A,,Clear,280,2013-05-29 06:35:00
12:55 AM,56.8,21.0,25,29.87,10.0,WSW,9.2,16.1,N/A,,Clear,250,2013-05-29 06:55:00
1:15 AM,55.4,25.2,31,29.86,10.0,SW,12.7,16.1,N/A,,Clear,230,2013-05-29 07:15:00
1:35 AM,54.9,27.3,35,29.86,10.0,West,13.8,20.7,N/A,,Clear,260,2013-05-29 07:35:00
1:55 AM,54.7,27.9,36,29.86,10.0,WSW,12.7,24.2,N/A,,Clear,240,2013-05-29 07:55:00
2:15 AM,54.5,28.0,36,29.87,10.0,WSW,13.8,20.7,N/A,,Clear,240,2013-05-29 08:15:00
2:35 AM,53.6,29.1,39,29.87,10.0,SW,15.0,19.6,N/A,,Clear,220,2013-05-29 08:35:00
2:55 AM,53.2,30.7,42,29.88,10.0,WSW,12.7,23.0,N/A,,Clear,240,2013-05-29 08:55:00
3:15 AM,52.0,31.6,46,29.87,10.0,WSW,15.0,19.6,N/A,,Clear,250,2013-05-29 09:15:00
3:35 AM,52.7,32.0,45,29.87,10.0,WSW,15.0,25.3,N/A,,Clear,240,2013-05-29 09:35:00
3:55 AM,52.5,32.0,46,29.87,10.0,WSW,16.1,23.0,N/A,,Clear,240,2013-05-29 09:55:00
4:15 AM,52.0,33.1,49,29.88,10.0,West,17.3,21.9,N/A,,Clear,270,2013-05-29 10:15:00
4:35 AM,50.9,34.0,52,29.88,10.0,West,20.7,26.5,N/A,,Clear,260,2013-05-29 10:35:00
4:55 AM,49.6,34.3,56,29.88,10.0,West,15.0,25.3,N/A,,Scattered Clouds,260,2013-05-29 10:55:00
5:15 AM,49.3,32.2,52,29.91,10.0,West,23.0,34.5,N/A,,Overcast,260,2013-05-29 11:15:00
5:35 AM,48.0,32.4,55,29.90,10.0,NW,3.5,-,N/A,,Overcast,310,2013-05-29 11:35:00
5:55 AM,48.6,31.8,52,29.88,10.0,NNW,4.6,-,N/A,,Overcast,340,2013-05-29 11:55:00
6:15 AM,50.0,29.5,45,29.87,10.0,WNW,6.9,-,N/A,,Mostly Cloudy,300,2013-05-29 12:15:00
6:35 AM,51.1,27.7,40,29.88,10.0,SSW,3.5,-,N/A,,Mostly Cloudy,200,2013-05-29 12:35:00
6:55 AM,49.8,30.2,47,29.88,10.0,SSW,3.5,-,N/A,,Mostly Cloudy,210,2013-05-29 12:55:00
7:15 AM,51.8,28.9,41,29.88,10.0,West,11.5,20.7,N/A,,Mostly Cloudy,260,2013-05-29 13:15:00
7:35 AM,52.9,29.3,40,29.88,10.0,SW,15.0,21.9,N/A,,Scattered Clouds,230,2013-05-29 13:35:00
7:55 AM,55.0,28.0,35,29.88,10.0,WSW,15.0,21.9,N/A,,Scattered Clouds,240,2013-05-29 13:55:00
8:15 AM,55.4,27.9,35,29.89,10.0,WSW,16.1,24.2,N/A,,Scattered Clouds,240,2013-05-29 14:15:00
8:35 AM,56.1,27.7,34,29.89,10.0,SW,16.1,24.2,N/A,,Clear,230,2013-05-29 14:35:00
8:55 AM,55.6,26.4,33,29.89,10.0,WSW,21.9,27.6,N/A,,Clear,250,2013-05-29 14:55:00
9:15 AM,56.5,26.2,31,29.89,10.0,WSW,16.1,24.2,N/A,,Clear,240,2013-05-29 15:15:00
9:35 AM,57.9,25.2,28,29.88,10.0,WSW,19.6,26.5,N/A,,Scattered Clouds,250,2013-05-29 15:35:00
9:55 AM,58.1,24.6,28,29.88,10.0,West,17.3,25.3,N/A,,Scattered Clouds,260,2013-05-29 15:55:00
10:15 AM,54.7,25.3,32,29.88,10.0,WSW,18.4,27.6,N/A,,Mostly Cloudy,240,2013-05-29 16:15:00
10:35 AM,57.0,25.7,30,29.87,10.0,South,12.7,18.4,N/A,,Scattered Clouds,190,2013-05-29 16:35:00
10:55 AM,58.5,24.4,27,29.87,10.0,WSW,16.1,26.5,N/A,,Mostly Cloudy,250,2013-05-29 16:55:00
11:15 AM,58.5,26.8,30,29.88,10.0,West,26.5,34.5,N/A,,Mostly Cloudy,280,2013-05-29 17:15:00
11:35 AM,58.8,28.6,32,29.88,10.0,West,17.3,25.3,N/A,,Scattered Clouds,270,2013-05-29 17:35:00
11:55 AM,60.1,25.3,27,29.87,10.0,West,18.4,29.9,N/A,,Mostly Cloudy,260,2013-05-29 17:55:00
12:15 PM,61.9,23.9,23,29.86,10.0,West,19.6,27.6,N/A,,Scattered Clouds,270,2013-05-29 18:15:00
12:35 PM,62.1,25.0,24,29.86,10.0,WNW,17.3,28.8,N/A,,Clear,290,2013-05-29 18:35:00
1:15 PM,62.4,23.9,23,29.84,10.0,West,20.7,28.8,N/A,,Scattered Clouds,270,2013-05-29 19:15:00
1:35 PM,64.8,19.0,17,29.83,10.0,WSW,23.0,33.4,N/A,,Clear,250,2013-05-29 19:35:00
1:55 PM,65.1,19.2,17,29.84,10.0,WSW,16.1,29.9,N/A,,Clear,250,2013-05-29 19:55:00
2:15 PM,64.0,21.9,20,29.84,10.0,WSW,20.7,27.6,N/A,,Scattered Clouds,240,2013-05-29 20:15:00
2:35 PM,64.4,19.8,18,29.84,10.0,West,20.7,26.5,N/A,,Scattered Clouds,270,2013-05-29 20:35:00
2:55 PM,62.6,26.6,26,29.84,10.0,West,27.6,35.7,N/A,,Clear,280,2013-05-29 20:55:00
3:15 PM,63.5,23.0,21,29.82,10.0,WNW,19.6,33.4,N/A,,Clear,300,2013-05-29 21:15:00
3:35 PM,63.9,18.9,18,29.83,10.0,West,20.7,29.9,N/A,,Clear,280,2013-05-29 21:35:00
3:55 PM,60.3,23.4,24,29.85,10.0,West,31.1,40.3,N/A,,Scattered Clouds,280,2013-05-29 21:55:00
4:15 PM,59.7,23.7,25,29.84,10.0,West,23.0,33.4,N/A,,Overcast,270,2013-05-29 22:15:00
4:35 PM,62.8,20.5,20,29.83,10.0,West,17.3,27.6,N/A,,Scattered Clouds,280,2013-05-29 22:35:00
4:55 PM,62.8,16.7,17,29.82,10.0,WNW,23.0,29.9,N/A,,Clear,290,2013-05-29 22:55:00
5:15 PM,64.9,19.4,17,29.82,10.0,WNW,31.1,35.7,N/A,,Clear,290,2013-05-29 23:15:00
5:35 PM,62.4,25.7,25,29.84,10.0,WNW,28.8,34.5,N/A,,Clear,290,2013-05-29 23:35:00
5:55 PM,61.9,23.0,23,29.84,10.0,West,16.1,28.8,N/A,,Clear,280,2013-05-29 23:55:00
6:15 PM,62.1,19.0,19,29.84,10.0,WNW,15.0,18.4,N/A,,Clear,290,2013-05-30 00:15:00
6:35 PM,62.4,16.3,17,29.84,10.0,NW,3.5,-,N/A,,Clear,310,2013-05-30 00:35:00
6:55 PM,61.9,18.3,19,29.85,10.0,West,16.1,27.6,N/A,,Scattered Clouds,260,2013-05-30 00:55:00
7:15 PM,60.4,21.0,22,29.86,10.0,West,12.7,17.3,N/A,,Scattered Clouds,270,2013-05-30 01:15:00
7:35 PM,60.1,21.6,23,29.86,10.0,West,16.1,28.8,N/A,,Scattered Clouds,280,2013-05-30 01:35:00
7:55 PM,57.4,23.0,27,29.86,10.0,West,9.2,21.9,N/A,,Scattered Clouds,280,2013-05-30 01:55:00
8:15 PM,56.1,23.4,28,29.87,10.0,West,11.5,-,N/A,,Clear,260,2013-05-30 02:15:00
8:35 PM,55.4,23.4,29,29.88,10.0,WNW,8.1,-,N/A,,Scattered Clouds,290,2013-05-30 02:35:00
8:55 PM,55.0,25.3,32,29.90,10.0,West,17.3,-,N/A,,Scattered Clouds,260,2013-05-30 02:55:00
9:15 PM,53.6,26.2,35,29.90,10.0,West,10.4,18.4,N/A,,Scattered Clouds,260,2013-05-30 03:15:00
9:35 PM,53.2,23.7,32,29.91,10.0,WSW,6.9,-,N/A,,Clear,250,2013-05-30 03:35:00
9:55 PM,52.7,22.3,31,29.92,10.0,West,9.2,-,N/A,,Clear,260,2013-05-30 03:55:00
10:15 PM,51.8,22.8,32,29.94,10.0,NW,4.6,-,N/A,,Clear,310,2013-05-30 04:15:00
10:35 PM,50.7,21.7,32,29.95,10.0,West,3.5,-,N/A,,Clear,260,2013-05-30 04:35:00
10:55 PM,50.0,21.0,32,29.94,10.0,West,11.5,-,N/A,,Clear,260,2013-05-30 04:55:00
11:15 PM,50.0,21.2,32,29.95,10.0,WSW,8.1,-,N/A,,Clear,250,2013-05-30 05:15:00
11:35 PM,50.0,21.2,32,29.95,10.0,WSW,11.5,-,N/A,,Scattered Clouds,250,2013-05-30 05:35:00
11:55 PM,49.1,23.0,36,29.95,10.0,WSW,10.4,-,N/A,,Scattered Clouds,240,2013-05-30 05:55:00